Weather History for EVLA - February, 2013

Change the Weather History Date:

Thursday, February 14, 2013

  Actual Average Record
Temperature  
Mean Temperature 34 °F -  
Max Temperature 35 °F - - ()
Min Temperature 32 °F - - ()
Degree Days  
Heating Degree Days 32    
Moisture  
Dew Point 32 °F    
Average Humidity 90    
Maximum Humidity 93    
Minimum Humidity 78    
Precipitation  
Precipitation 0.00 in - - ()
Sea Level Pressure  
Sea Level Pressure 30.36 in    
Wind  
Wind Speed 4 mph ()    
Max Wind Speed 6 mph    
Max Gust Speed -    
Visibility 6.2 miles    
Events      
T = Trace of Precipitation, MM = Missing Value Source: Averaged Metar Reports

Daily Weather History Graph

Daily Weather History Graph

Search for Another Location

Airport or City:

Trip Planner

Search our weather history database for the weather conditions in past years. The results will help you decide how hot, cold, wet, or windy it might be!

Date:

Astronomy

Feb. 14, 2013 Rise Set
Actual Time 8:04 AM EET 5:35 PM EET
Civil Twilight 7:25 AM EET 6:15 PM EET
Nautical Twilight 6:40 AM EET 6:59 PM EET
Astronomical Twilight 5:57 AM EET 7:43 PM EET
Moon 8:56 AM EET (2/14) 11:27 PM EET (2/14)
Length of Visible Light 10h 50m
Length of Day
9h 31m
Waxing Crescent, 19% of the Moon is Illuminated
Feb 14
Waxing Crescent
Feb 17
First Quarter
Feb 25
Full
Mar 4
Last Quarter
Mar 11
New

Hourly Weather History & Observations

Time (EET) Temp. Windchill Dew Point Humidity Pressure Visibility Wind Dir Wind Speed Gust Speed Precip Events Conditions
12:20 AM 35.6 °F 30.7 °F 32.0 °F 87% 30.39 in 6.2 mi ESE 5.8 mph - N/A   Overcast
12:50 AM 35.6 °F 30.7 °F 32.0 °F 87% 30.39 in 6.2 mi ESE 5.8 mph - N/A   Overcast
1:20 AM 35.6 °F 32.8 °F 32.0 °F 87% 30.39 in 6.2 mi ESE 3.5 mph - N/A   Overcast
1:50 AM 35.6 °F 31.7 °F 32.0 °F 87% 30.39 in 6.2 mi ESE 4.6 mph - N/A   Overcast
2:00 AM 34 °F - 31 °F 82% 30.42 in 6 mi ESE 4.5 mph - -   Overcast
2:20 AM 35.6 °F 32.8 °F 32.0 °F 87% 30.39 in 6.2 mi ESE 3.5 mph - N/A   Overcast
2:50 AM 33.8 °F 30.8 °F 32.0 °F 93% 30.39 in 6.2 mi ESE 3.5 mph - N/A   Overcast
3:20 AM 33.8 °F 29.6 °F 32.0 °F 93% 30.39 in 6.2 mi ESE 4.6 mph - N/A   Overcast
3:50 AM 33.8 °F 30.8 °F 32.0 °F 93% 30.39 in 6.2 mi ESE 3.5 mph - N/A   Overcast
4:20 AM 33.8 °F 30.8 °F 32.0 °F 93% 30.39 in 6.2 mi ESE 3.5 mph - N/A   Overcast
4:50 AM 33.8 °F 29.6 °F 32.0 °F 93% 30.39 in 6.2 mi ESE 4.6 mph - N/A   Overcast
5:20 AM 33.8 °F 30.8 °F 32.0 °F 93% 30.39 in 6.2 mi SE 3.5 mph - N/A   Overcast
5:50 AM 33.8 °F 30.8 °F 32.0 °F 93% 30.39 in 6.2 mi ESE 3.5 mph - N/A   Overcast
6:20 AM 33.8 °F 30.8 °F 32.0 °F 93% 30.39 in 6.2 mi ESE 3.5 mph - N/A   Overcast
6:50 AM 33.8 °F 29.6 °F 32.0 °F 93% 30.39 in 6.2 mi ESE 4.6 mph - N/A   Overcast
7:20 AM 33.8 °F - 32.0 °F 93% 30.39 in 6.2 mi ESE 2.3 mph - N/A   Overcast
7:50 AM 33.8 °F - 32.0 °F 93% 30.39 in 6.2 mi ESE 2.3 mph - N/A   Overcast
8:00 AM 33 °F - 29 °F 81% 30.41 in 6 mi ESE 2.2 mph - -   Overcast
8:20 AM 33.8 °F 30.8 °F 32.0 °F 93% 30.39 in 5.6 mi ESE 3.5 mph - N/A   Overcast
8:50 AM 33.8 °F 30.8 °F 32.0 °F 93% 30.39 in 6.2 mi SE 3.5 mph - N/A   Overcast
9:20 AM 33.8 °F 30.8 °F 32.0 °F 93% 30.39 in 6.2 mi SE 3.5 mph - N/A   Overcast
9:50 AM 33.8 °F 30.8 °F 32.0 °F 93% 30.39 in 6.2 mi ESE 3.5 mph - N/A   Overcast
10:20 AM 33.8 °F 29.6 °F 32.0 °F 93% 30.39 in 5.6 mi SE 4.6 mph - N/A   Overcast
10:50 AM 33.8 °F 30.8 °F 32.0 °F 93% 30.39 in 6.2 mi SE 3.5 mph - N/A   Overcast
11:20 AM 35.6 °F 32.8 °F 32.0 °F 87% 30.39 in 6.2 mi SE 3.5 mph - N/A   Overcast
11:50 AM 35.6 °F 31.7 °F 32.0 °F 87% 30.39 in 6.2 mi SE 4.6 mph - N/A   Overcast
12:20 PM 35.6 °F 31.7 °F 32.0 °F 87% 30.39 in 6.2 mi ESE 4.6 mph - N/A   Overcast
12:50 PM 35.6 °F 31.7 °F 32.0 °F 87% 30.39 in 6.2 mi SE 4.6 mph - N/A   Overcast
1:20 PM 35.6 °F 31.7 °F 32.0 °F 87% 30.36 in 6.2 mi ESE 4.6 mph - N/A   Overcast
1:50 PM 35.6 °F 31.7 °F 32.0 °F 87% 30.36 in 6.2 mi ESE 4.6 mph - N/A   Overcast
2:00 PM 35 °F - 31 °F 78% 30.39 in 9 mi East 4.5 mph - -   Overcast
2:20 PM 35.6 °F 31.7 °F 32.0 °F 87% 30.36 in 5.6 mi ESE 4.6 mph - N/A   Overcast
2:50 PM 35.6 °F 31.7 °F 32.0 °F 87% 30.36 in 6.2 mi East 4.6 mph - N/A   Overcast
3:20 PM 35.6 °F 31.7 °F 32.0 °F 87% 30.36 in 6.2 mi East 4.6 mph - N/A   Overcast
3:50 PM 35.6 °F 31.7 °F 32.0 °F 87% 30.36 in 6.2 mi East 4.6 mph - N/A   Overcast
4:20 PM 35.6 °F 32.8 °F 32.0 °F 87% 30.33 in 6.2 mi East 3.5 mph - N/A   Overcast
4:50 PM 35.6 °F 32.8 °F 32.0 °F 87% 30.33 in 6.2 mi East 3.5 mph - N/A   Overcast
5:20 PM 33.8 °F - 32.0 °F 93% 30.33 in 5.6 mi Variable 2.3 mph - N/A   Overcast
5:50 PM 33.8 °F 30.8 °F 32.0 °F 93% 30.33 in 5.6 mi East 3.5 mph - N/A   Overcast
6:20 PM 33.8 °F - 32.0 °F 93% 30.33 in 6.2 mi ENE 2.3 mph - N/A   Overcast
6:50 PM 33.8 °F 30.8 °F 32.0 °F 93% 30.33 in 5.6 mi ENE 3.5 mph - N/A   Overcast
7:20 PM 33.8 °F 29.6 °F 32.0 °F 93% 30.33 in 6.2 mi ENE 4.6 mph - N/A   Overcast
7:50 PM 33.8 °F 28.6 °F 32.0 °F 93% 30.33 in 6.2 mi East 5.8 mph - N/A   Overcast
8:00 PM 33 °F - 31 °F 89% 30.34 in 6 mi East 4.5 mph - -   Overcast
8:20 PM 33.8 °F 29.6 °F 32.0 °F 93% 30.33 in 6.2 mi East 4.6 mph - N/A   Scattered Clouds
8:50 PM 33.8 °F 30.8 °F 32.0 °F 93% 30.33 in 6.2 mi East 3.5 mph - N/A   Mostly Cloudy
9:20 PM 33.8 °F 29.6 °F 32.0 °F 93% 30.30 in 6.2 mi East 4.6 mph - N/A   Overcast
9:50 PM 33.8 °F 28.6 °F 32.0 °F 93% 30.30 in 6.2 mi East 5.8 mph - N/A   Overcast
10:20 PM 33.8 °F 28.6 °F 32.0 °F 93% 30.30 in 6.2 mi East 5.8 mph - N/A   Overcast
10:50 PM 33.8 °F 28.6 °F 32.0 °F 93% 30.30 in 6.2 mi East 5.8 mph - N/A   Overcast
11:20 PM 33.8 °F 28.6 °F 32.0 °F 93% 30.30 in 6.2 mi East 5.8 mph - N/A   Overcast
11:50 PM 33.8 °F 28.6 °F 32.0 °F 93% 30.30 in 6.2 mi East 5.8 mph - N/A   Overcast